Location: ???? ???? ?????
(31.2680°N, 31.7283°E)
Time: 09:50:47
(UTC+00:00)

ATLAS 2AS CENTAUR R/B - Pass Details

Date: 13 July 2020
Orbit: 930 x 1282 km, 63.7° (Epoch: 19 July)

Event Time Altitude Azimuth Distance (km) Brightness Sun altitude
Rises 20:22:51 0° 324° (NW) 4,064 6.8 -32.3°
Reaches altitude 10° 20:25:45 10° 320° (NW) 3,048 5.9 -32.5°
Enters shadow 20:32:11 49° 261° (W) 1,368 3.2 -33.1°
